Location: Famechon
(49.7599°N, 2.0615°E)
Time: 18:37:20
(UTC+00:00)

Cosmos 1553 Rocket - Pass Details

Date: 03 February 2023
Orbit: 942 x 1007 km, 82.9° (Epoch: 26 March)

Event Time Altitude Azimuth Distance (km) Brightness Sun altitude
Rises 17:54:11 0° 161° (SSE) 3,598 6.9 -10.7°
Reaches altitude 10° 17:56:48 10° 153° (SSE) 2,662 6.2 -11.1°
Maximum altitude 18:02:20 38° 88° (E) 1,416 4.4 -12.0°
Drops below altitude 10° 18:07:57 10° 22° (NNE) 2,710 6.0 -12.9°
Sets 18:10:38 0° 15° (NNE) 3,671 6.8 -13.3°
